Cloud_Cover
100 95 31 5 2 5 62 100 77 100 100 100 100 100 100 100 100 100 98 83 100 100 100 100 100 100 100 20 5 5 5 5 22 87 100 100 94 31 100 100 100 100 19 8
98 100 75 17 6 69 99 100 99 95 100 100 100 100 100 100 100 100 87 100 100 100 100 100 100 100 100 100 100 100 97 89 96 100 55 87 100 100 79 46 26 34 78 88
99 100 15 5 5 7 100 96 100 66 100 100 100 100 100 86 100 100 100 100 100 100 100 100 100 100 100 100 100 96 93 99 100 98 58 76 98 100 100 58 62 11 12 5
68 100 100 52 25 18 75 99 100 100 100 100 100 100 100 92 100 100 100 100 100 100 100 100 100 100 100 100 100 100 100 100 100 100 100 100 38 22 100 100 54 15 5 4
100 100 100 88 81 100 100 100 95 83 100 100 100 100 100 79 100 100 100 100 100 100 100 100 100 100 100 100 100 100 100 100 100 64 62 41 65 5 5 82 52 18 5 5
99 100 100 100 100 91 91 100 90 100 97 100 100 100 100 100 100 100 100 100 100 100 100 100 100 100 100 100 100 100 100 100 100 99 72 37 72 55 74 6 5 5 5 24
100 100 100 100 100 100 100 99 97 95 88 100 100 100 100 100 100 98 100 100 100 100 100 100 100 100 100 100 100 100 100 100 100 100 90 95 98 31 32 5 5 5 5 5
100 100 100 100 100 99 98 100 99 33 5 23 100 100 100 100 100 100 100 100 100 100 100 100 100 100 100 100 100 72 34 5 36 28 57 72 92 25 53 32 15 6 6 39
100 100 100 100 100 100 100 84 99 100 70 57 100 100 100 100 100 100 100 99 100 100 100 99 98 94 90 81 38 6 20 41 31 60 98 89 97 54 46 13 8 44 25 63
100 100 100 100 100 100 100 100 100 98 90 94 100 100 100 100 100 100 100 99 99 89 72 53 14 5 5 5 5 23 33 62 54 46 77 48 98 60 62 73 57 37 26 24
100 100 100 100 100 100 100 100 53 100 100 95 83 51 99 100 100 100 100 100 100 100 100 89 72 60 61 85 71 37 66 63 37 84 96 73 56 48 55 33 63 75 21 67
100 100 100 100 97 100 100 100 100 100 98 7 30 100 56 98 100 100 100 100 100 100 100 100 100 100 100 100 100 100 100 100 97 80 98 53 75 8 36 21 7 33 5 0
37 100 100 100 98 100 100 100 100 100 100 100 93 16 100 100 58 100 100 100 100 100 100 100 100 100 100 100 100 100 100 100 91 35 99 66 38 22 25 5 5 8 2 0
76 83 100 100 100 99 100 70 43 59 100 100 100 95 100 100 100 87 100 100 100 100 100 100 100 100 100 100 100 100 100 84 87 75 80 70 58 28 23 18 63 100 69 0
27 5 7 77 100 100 90 100 100 100 100 99 96 100 100 100 100 100 100 86 100 100 100 100 88 100 100 56 11 7 9 12 24 5 4 4 2 100 100 100 92 100 100 94
100 96 68 5 17 100 100 100 100 100 100 100 99 42 100 100 100 100 100 100 100 100 100 100 100 98 89 78 99 100 15 6 7 17 3 2 71 100 100 100 100 100 100 100
26 86 38 18 5 5 76 99 100 100 97 82 16 35 100 98 98 100 97 73 96 100 100 100 98 77 95 100 99 30 5 6 44 52 28 59 100 100 100 100 100 100 100 100
35 76 24 7 11 82 92 46 62 12 5 49 21 100 100 95 100 100 100 100 100 100 100 100 100 100 100 63 17 8 7 100 100 100 100 100 100 100 100 100 100 100 100 100
63 95 54 30 44 92 46 97 89 75 42 65 73 100 100 100 100 100 100 100 100 100 87 99 100 80 5 62 73 5 86 100 100 100 100 100 100 100 100 100 100 100 100 100
20 72 64 100 95 46 100 100 100 99 99 100 100 100 100 100 100 100 100 100 100 100 100 100 93 69 20 95 5 26 100 100 100 100 100 100 96 100 100 100 100 100 91 55
69 86 88 99 100 100 99 100 90 99 100 100 100 100 100 100 100 100 100 70 88 100 69 6 9 5 12 15 54 97 100 100 100 100 100 100 98 100 94 75 26 4 0 0
73 83 67 68 100 99 100 100 100 100 100 100 100 100 100 100 100 100 100 100 100 34 65 29 5 46 95 100 100 100 100 100 100 100 93 59 20 6 4 5 3 0 0 0
72 84 93 8 34 97 99 100 100 100 100 100 100 100 100 100 99 100 100 100 100 97 52 54 78 84 100 100 100 100 100 100 100 100 100 10 5 5 5 5 5 5 14 5
96 32 100 55 68 20 65 78 90 95 100 99 89 80 100 100 100 99 100 98 100 98 100 96 75 100 100 100 100 100 100 56 52 100 100 98 37 20 5 26 9 14 60 10
56 24 6 19 100 54 11 10 13 10 17 15 79 92 95 94 90 100 100 100 100 100 100 82 59 99 100 100 100 100 74 5 55 100 100 100 98 67 20 26 43 76 100 62
7 6 5 5 97 93 100 87 27 23 34 58 34 62 92 100 87 100 100 100 100 98 95 65 13 96 100 100 100 81 9 5 5 91 100 100 94 85 87 75 97 100 100 98